"Pseudo-MPEC" for A10eQDk

Created 2019 Jul 23 15:07:02 UT using Find_Orb

Click here for an explanation of pseudo-MPECs

 
 Astrometry: 
     A10eQDk  C2019 07 10.45970220 01 09.01 -24 02 53.4    ~7ALb 19.24oVNEOCPT05
     A10eQDk  C2019 07 10.46637720 01 09.12 -24 03 02.6    ~7ALb 19.10oVNEOCPT05
     A10eQDk  C2019 07 10.47478220 01 09.35 -24 03 12.3    ~7ALb 19.13oVNEOCPT05
     A10eQDk  C2019 07 10.48829920 01 09.54 -24 03 29.1    ~7ALb 19.23oVNEOCPT05
     A10eQDk IC2019 07 10;q)4O5Astrometryb2u0#^5::L6bDs3kEPebX_Qkredacted;HuhL01
     A10eQDk IC2019 07 10xdQd9clickaAwP6lTyAFxBv=*.6y8Njj9u/R6P*f@vCFhere*CyLL01
     A10eQDk IC2019 07 10iQH?forn,MpBML5!explanation=%n84!)?+o_[l`?6_EY7mS+TVL01

Station data:
(L01) Višnjan Observatory, Tičan  (N45.290900 E13.749300)  Croatia.
   Observers K. Korlević, E. Pettarin. Measurer E. Pettarin. 1.0-m f/2.9
   reflector + CCD.
(T05) ATLAS-HKO, Haleakala  (N20.707573 W156.257010)  US/Hawaii.  Observers
   L. Denneau, A. Heinze, H. Weiland, J. Tonry, H. Flewelling, A.
   Fitzsimmons, D. Young, B. Stalder. Measurers L. Denneau, A. Heinze, J.
   Tonry. 0.5-m f/2.0 Schmidt + CCD.

Orbital elements:  A10eQDk
   Perihelion 2019 Jun 28.469511 +/- 34 TT = 11:16:05 (JD 2458662.969511)
Epoch 2019 Jul 11.0 TT = JDT 2458675.5   Earth MOID: 0.3904   Ma: 0.0061
M   3.17062221 +/- 9                (J2000 ecliptic)          AutoNEOCP
n   0.25303259 +/- 0.122            Peri.  178.49603 +/- 26
a   2.47562617 +/- 0.793            Node   103.54686 +/- 1.1
e   0.4316249 +/- 0.139             Incl.    8.07900 +/- 2.1
P   3.90                   H 20.5   G  0.15   U 11.3  SR
q 1.40708426 +/- 0.125    Q 3.54416807 +/- 1.82
From 7 observations 2019 July 10 (12.5 hr); mean residual 0".47
Residuals in arcseconds: 
190710 T05  .34-  .84+    190710 T05  .08+  .59-    190710 L01  .11+  .47-    
190710 T05  .43-  .34-    190710 L01  .26+  .77+    
190710 T05  .71+  .05+    190710 L01  .39-  .27-    

Ephemerides (geocentric):
Date (UTC) HH   RA              Dec         delta   r     elong  mag " sig PA
---- -- -- --  -------------   -----------  ------ ------ -----  --- ---- ---
2019 07 23 15  20 06 01.332   -28 10 58.39  .41424 1.4272 171.9 19.8 1370  74
2019 07 23 16  20 06 02.149   -28 11 40.83  .41432 1.4273 171.9 19.8 1378  74
2019 07 23 17  20 06 02.966   -28 12 23.23  .41441 1.4274 171.8 19.8 1387  74
2019 07 23 18  20 06 03.783   -28 13 05.58  .41450 1.4274 171.8 19.8 1395  74
2019 07 23 19  20 06 04.599   -28 13 47.90  .41459 1.4275 171.8 19.8 1404  74
2019 07 23 20  20 06 05.416   -28 14 30.17  .41468 1.4276 171.8 19.8 1412  74
2019 07 23 21  20 06 06.233   -28 15 12.41  .41476 1.4276 171.7 19.8 1421  74
2019 07 23 22  20 06 07.049   -28 15 54.60  .41485 1.4277 171.7 19.8 1430  74
2019 07 23 23  20 06 07.866   -28 16 36.75  .41494 1.4278 171.7 19.9 1438  74
2019 07 24 00  20 06 08.683   -28 17 18.87  .41503 1.4278 171.7 19.9 1447  74
2019 07 24 01  20 06 09.499   -28 18 00.94  .41512 1.4279 171.6 19.9 1456  74
2019 07 24 02  20 06 10.316   -28 18 42.97  .41521 1.4280 171.6 19.9 1464  74
2019 07 24 03  20 06 11.132   -28 19 24.96  .41530 1.4280 171.6 19.9 1473  74
2019 07 24 04  20 06 11.949   -28 20 06.90  .41539 1.4281 171.6 19.9 1482  74
2019 07 24 05  20 06 12.765   -28 20 48.81  .41548 1.4282 171.5 19.9 1491  74
2019 07 24 06  20 06 13.582   -28 21 30.68  .41557 1.4282 171.5 19.9 1499  74
2019 07 24 07  20 06 14.398   -28 22 12.50  .41566 1.4283 171.5 19.9 1508  74
2019 07 24 08  20 06 15.215   -28 22 54.28  .41575 1.4284 171.5 19.9 1517  74
2019 07 24 09  20 06 16.031   -28 23 36.02  .41584 1.4284 171.4 19.9 1526  74
2019 07 24 10  20 06 16.848   -28 24 17.72  .41594 1.4285 171.4 19.9 1535  74
2019 07 24 11  20 06 17.665   -28 24 59.38  .41603 1.4286 171.4 19.9 1544  74
2019 07 24 12  20 06 18.481   -28 25 40.99  .41612 1.4286 171.4 19.9 1553  74
2019 07 24 13  20 06 19.298   -28 26 22.57  .41621 1.4287 171.3 19.9 1561  74
2019 07 24 14  20 06 20.115   -28 27 04.10  .41630 1.4288 171.3 19.9 1570  74
2019 07 24 15  20 06 20.932   -28 27 45.59  .41640 1.4288 171.3 19.9 1579  74
2019 07 24 16  20 06 21.749   -28 28 27.03  .41649 1.4289 171.2 19.9 1588  74
2019 07 24 17  20 06 22.566   -28 29 08.44  .41658 1.4290 171.2 19.9 1597  74
2019 07 24 18  20 06 23.383   -28 29 49.80  .41668 1.4291 171.2 19.9 1607  74
2019 07 24 19  20 06 24.200   -28 30 31.12  .41677 1.4291 171.2 19.9 1616  74
2019 07 24 20  20 06 25.017   -28 31 12.40  .41687 1.4292 171.1 19.9 1625  74
2019 07 24 21  20 06 25.834   -28 31 53.63  .41696 1.4293 171.1 19.9 1634  74
2019 07 24 22  20 06 26.652   -28 32 34.83  .41706 1.4293 171.1 19.9 1643  74
2019 07 24 23  20 06 27.469   -28 33 15.98  .41715 1.4294 171.1 19.9 1652  74
2019 07 25 00  20 06 28.287   -28 33 57.08  .41725 1.4295 171.0 19.9 1661  74
2019 07 25 01  20 06 29.105   -28 34 38.15  .41734 1.4295 171.0 19.9 1670  74
2019 07 25 02  20 06 29.923   -28 35 19.17  .41744 1.4296 171.0 19.9 1680  74
2019 07 25 03  20 06 30.741   -28 36 00.15  .41753 1.4297 171.0 19.9 1689  74
2019 07 25 04  20 06 31.559   -28 36 41.08  .41763 1.4297 170.9 19.9 1698  74
2019 07 25 05  20 06 32.378   -28 37 21.97  .41773 1.4298 170.9 19.9 1708  74
2019 07 25 06  20 06 33.196   -28 38 02.82  .41782 1.4299 170.9 19.9 1717  74
2019 07 25 07  20 06 34.015   -28 38 43.62  .41792 1.4300 170.8 19.9 1726  74
2019 07 25 08  20 06 34.834   -28 39 24.39  .41802 1.4300 170.8 19.9 1736  74
2019 07 25 09  20 06 35.653   -28 40 05.10  .41812 1.4301 170.8 19.9 1745  74
2019 07 25 10  20 06 36.472   -28 40 45.78  .41821 1.4302 170.8 19.9 1754  74
2019 07 25 11  20 06 37.292   -28 41 26.41  .41831 1.4302 170.7 19.9 1764  74
2019 07 25 12  20 06 38.111   -28 42 06.99  .41841 1.4303 170.7 19.9 1773  74
2019 07 25 13  20 06 38.931   -28 42 47.54  .41851 1.4304 170.7 19.9 1783  74
2019 07 25 14  20 06 39.751   -28 43 28.04  .41861 1.4304 170.6 19.9 1792  74